Weather Roundup
Issued by NWS Corpus Christi, TX

Home | Current Version | Previous Version | Text Only | Print | Product List | Glossary On
Versions: 1 2 3 4 5 6 7 8 9 10 11 12 13 14 15 16 17 18 19 20 21 22 23 24 25 26 27 28 29 30 31 32 33 34 35 36 37 38 39 40 41 42 43 44 45 46 47 48 49 50
000
ASUS44 KCRP 201910
HRRCRP

SOUTH TEXAS REGIONAL WEATHER ROUNDUP
NATIONAL WEATHER SERVICE CORPUS CHRISTI TX
200 PM CDT WED AUG 20 2014


TXZ229>244-202000-
...CORPUS CHRISTI AREA OBSERVATIONS...

CITY           SKY/WX    TMP DP  RH WIND       PRES   REMARKS
CORPUS CHRISTI PTSUNNY   95  74  50 SE24G31   29.94F HX 105
NAS CORPUS CHR PTSUNNY   93  78  61 SE20G29   29.95F HX 108
ROCKPORT       MOSUNNY   93  77  59 S12G22    29.96F HX 107
KINGSVILLE NAS PTSUNNY   90  82  77 SE18G25   29.92F HX 111
ALICE          MOSUNNY   99  69  37 S20G25    29.90F HX 105
FALFURRIAS     MOSUNNY  105  84  52 S14G28    29.90F HX 135
$$

...VICTORIA AREA OBSERVATIONS...

CITY           SKY/WX    TMP DP  RH WIND       PRES   REMARKS
VICTORIA       PTSUNNY   95  73  48 S17G25    29.96F HX 104
BEEVILLE       FAIR      98  69  39 S18G28    29.93F HX 104
PLEASANTON     MOSUNNY   97  64  33 SE9G18    29.93F HX  99
SAN ANTONIO    MOSUNNY   97  66  36 S14       29.96F HX 100
$$

...LAREDO AREA OBSERVATIONS...

CITY           SKY/WX    TMP DP  RH WIND       PRES   REMARKS
LAREDO         MOSUNNY   99  66  33 SE18G25   29.92F HX 102
COTULLA        MOSUNNY   97  64  33 S8G22     29.91F HX  99
DEL RIO        SUNNY     94  68  42 S16G25    29.90F HX  98
MCALLEN        MOSUNNY   98  71  41 SE23G30   29.90F HX 106
HEBBRONVILLE   MOSUNNY   96  64  34 SE14G28   29.92F HX  98
$$

...OTHER TEXAS OBSERVATIONS...

CITY           SKY/WX    TMP DP  RH WIND       PRES   REMARKS
BROWNSVILLE    PTSUNNY   94  74  52 S23G30    29.94F HX 104
HOUSTON        PTSUNNY   94  75  54 SE14G21   29.97F HX 105
COL. STATION   MOSUNNY   94  70  45 S9G18     29.96F HX 100
AUSTIN         MOSUNNY   98  67  36 SE17G25   29.94F HX 102
WACO           SUNNY     96  68  39 S14       29.96F HX 101
FORT WORTH     MOSUNNY   94  68  42 S20G26    29.95F HX  98
WICHITA FALLS  SUNNY     96  58  27 S22G28    29.90S HX  95
LUBBOCK        MOSUNNY   93  63  36 S16G24    29.95F HX  94
EL PASO        MOSUNNY   86  55  34 N8        30.01F
$$

...MARINE OBSERVATIONS...

STATION/POSITION TIME  SKY/WX   TEMP    WIND        PRES    VSBY  WAVE   SWELL
                                AIR SEA DIR/SP/G                  HT/PER HT/PER
                 (UTC)          (F)     (DEG/KT/KT) (MB)    (MI)  (FT/S) (FT/S)
PORT ARANSAS     1900            84 85  140/ 12/ 13 1015.4F
BUOY 90 E PORT A 1900            85 85  160/ 12/ 14 1016.1F         3/ 6
BUOY 45 SE BAFFI 1900            85 86  170/ 14/ 17 1014.3F         4/ 6
BUOY 200 E PT IS 1900            86 86  160/ 12/ 14 1016.4S         3/ 5   2/ 6
BUOY 15 E GALVES NOT AVBL
$$


USA.gov is the U.S. government's official web portal to all federal, state and local government web resources and services.